Location: Old Broadwell Mill Observatory
(33.8015°N, 85.8137°W)
Time: 22:31:41
(UTC-05:00)

Amateur Radio Satellites - All Passes

Search period start: 24 June 2017 22:01
Search period end: 25 June 2017 22:01
Location: Old Broadwell Mill Observatory, 33.8015°N, 85.8137°W

Satellite Date Start Highest point End Downlink Frequencies (MHz)
Time Altitude Azimuth
BEESAT 3 24 Jun 22:07:24 22:10:06 17° 308° (NW) 22:12:50 437.485
NO-84 24 Jun 22:17:05 22:20:43 39° 318° (NW) 22:24:39 435.350 FM
M-CUBED/EXP-1 PRIME 24 Jun 22:22:25 22:26:12 86° 107° (ESE) 22:30:18 437.505
DELFI C3 24 Jun 22:22:27 22:25:45 26° 263° (W) 22:29:03 145.870
TIGRISAT 24 Jun 22:25:36 22:30:07 49° 100° (E) 22:34:30 435.000
LO-87 24 Jun 22:27:10 22:29:56 22° 72° (ENE) 22:32:43 145.935 - 145.965
O/OREOS (USA 219) 24 Jun 22:33:46 22:37:31 25° 296° (WNW) 22:41:16 437.305
PRISM 24 Jun 22:34:33 22:38:39 70° 102° (ESE) 22:42:44 437.425
ESTCUBE 1 24 Jun 22:45:52 22:49:36 26° 70° (ENE) 22:53:20 437.505/2401.250
SO-50 24 Jun 22:50:37 22:54:00 20° 52° (NE) 22:57:24 436.795
RS-15 24 Jun 22:51:08 23:02:13 39° 313° (NW) 23:13:32 29.354- 29.394
BEESAT 2 24 Jun 23:05:16 23:07:05 13° 311° (NW) 23:08:56 435.950
UNISAT 6 24 Jun 23:07:29 23:11:58 48° 286° (WNW) 23:16:20 437.425
YUBILEINY 24 Jun 23:09:06 23:17:23 45° 282° (WNW) 23:25:46 435.215
PCSat 24 Jun 23:11:00 23:14:54 20° 255° (WSW) 23:18:47 145.827
FO-29 24 Jun 23:11:18 23:18:54 55° 289° (WNW) 23:26:21 435.910
SPROUT 24 Jun 23:20:35 23:22:54 14° 67° (ENE) 23:25:13 437.525
NANOSAT C BR1 24 Jun 23:31:11 23:32:57 12° 93° (E) 23:34:43 145.865
AIST 2D 24 Jun 23:31:55 23:35:03 31° 98° (E) 23:38:10 435.315
50 SAT 24 Jun 23:56:24 23:57:34 11° 69° (ENE) 23:58:42 437.505
LO-87 25 Jun 00:01:01 00:03:17 16° 265° (W) 00:05:34 145.935 - 145.965
TIGRISAT 25 Jun 00:03:58 00:06:17 14° 294° (WNW) 00:08:33 435.000
POLYITAN 1 25 Jun 00:06:08 00:10:09 38° 99° (E) 00:14:06 437.675
QB50P2 25 Jun 00:16:44 00:20:58 58° 101° (E) 00:25:09 145.880/145.840
ESTCUBE 1 25 Jun 00:22:43 00:26:18 23° 264° (W) 00:29:53 437.505/2401.250
VELOX 1 25 Jun 00:26:49 00:31:11 85° 76° (ENE) 00:35:35 145.980
SO-50 25 Jun 00:30:22 00:34:32 37° 247° (WSW) 00:38:43 436.795
BUGSAT 1 25 Jun 00:35:33 00:38:29 18° 95° (E) 00:41:23 437.445
EO-79 25 Jun 00:41:31 00:45:48 76° 284° (WNW) 00:50:02 145.935-145.965
DX 1 25 Jun 00:49:16 00:53:23 45° 73° (ENE) 00:57:31 434.975-435.025
SPROUT 25 Jun 00:54:26 00:58:25 39° 261° (W) 01:02:26 437.525
DUCHIFAT 1 25 Jun 00:56:34 01:00:46 62° 285° (WNW) 01:04:56 145.980
NANOSAT C BR1 25 Jun 01:04:47 01:08:49 43° 286° (WNW) 01:12:50 145.865
AIST 2D 25 Jun 01:06:49 01:07:54 11° 291° (WNW) 01:09:00 435.315
UKube-1 25 Jun 01:07:59 01:12:08 50° 74° (ENE) 01:16:18 .
RS-15 25 Jun 01:14:12 01:19:53 14° 345° (NNW) 01:25:33 29.354- 29.394
50 SAT 25 Jun 01:27:05 01:30:02 28° 262° (W) 01:33:00 437.505
Oscar 19 25 Jun 01:28:47 01:33:08 28° 97° (E) 01:37:28 437.125/150
POLYITAN 1 25 Jun 01:43:09 01:45:33 15° 293° (WNW) 01:47:56 437.675
ITUPSAT 1 25 Jun 02:07:29 02:10:58 20° 68° (ENE) 02:14:27 437.325
BUGSAT 1 25 Jun 02:10:07 02:13:49 29° 288° (WNW) 02:17:29 437.445
Gurwin Techsat 1B 25 Jun 02:15:36 02:20:47 51° 100° (E) 02:25:54 435.225
BEESAT 25 Jun 02:17:27 02:21:23 26° 69° (ENE) 02:25:20 436.000
DX 1 25 Jun 02:28:06 02:29:45 12° 267° (W) 02:31:24 434.975-435.025
AO-7 25 Jun 02:33:26 02:36:07 12° 91° (E) 02:38:46 .
UKube-1 25 Jun 02:47:21 02:48:23 11° 267° (W) 02:49:24 .
Oscar 19 25 Jun 03:08:01 03:12:20 28° 291° (WNW) 03:16:39 437.125/150
MOZHAYETS 4 25 Jun 03:30:52 03:35:30 80° 259° (W) 03:40:10
RS-15 25 Jun 03:33:10 03:40:14 17° 24° (NNE) 03:47:08 29.354- 29.394
KKS-1 25 Jun 03:35:58 03:37:40 12° 66° (ENE) 03:39:23 437.445
ITAMSAT 1 25 Jun 03:43:25 03:48:22 42° 99° (E) 03:53:17 435.822/435.867
ITUPSAT 1 25 Jun 03:44:07 03:48:30 35° 262° (W) 03:52:54 437.325
BEESAT 25 Jun 03:55:02 03:59:01 26° 263° (W) 04:03:03 436.000
Gurwin Techsat 1B 25 Jun 03:56:52 04:00:15 17° 295° (WNW) 04:03:37 435.225
STARS 25 Jun 04:08:10 04:09:18 11° 65° (ENE) 04:10:28 437.465
CUBESAT XI-V 25 Jun 04:10:17 04:14:42 45° 74° (ENE) 04:19:07 437.345
AO-7 25 Jun 04:21:25 04:29:51 80° 106° (ESE) 04:38:13 .
NO-84 25 Jun 04:54:04 04:57:49 27° 39° (NE) 05:01:28 435.350 FM
KKS-1 25 Jun 05:09:25 05:13:43 52° 260° (W) 05:18:03 437.445
DOVE 4 25 Jun 05:16:31 05:19:50 17° 94° (E) 05:23:13 437.250
ITAMSAT 1 25 Jun 05:23:45 05:27:28 20° 294° (WNW) 05:31:11 435.822/435.867
STARS 25 Jun 05:40:49 05:45:05 56° 259° (W) 05:49:25 437.465
RS-15 25 Jun 05:44:56 05:56:41 52° 53° (NE) 06:07:46 29.354- 29.394
LilacSat-2 25 Jun 05:45:02 05:46:00 11° 93° (E) 05:46:58 437.200
XW-2B 25 Jun 05:46:47 05:47:25 10° 92° (E) 05:48:03 145.730 - 145.750
BEESAT 2 25 Jun 05:48:48 05:49:41 11° 48° (NE) 05:50:33 435.950
CUBESAT XI-V 25 Jun 05:49:51 05:52:14 14° 267° (W) 05:54:38 437.345
XW-2C 25 Jun 06:00:30 06:03:01 17° 95° (E) 06:05:30 145.795 - 145.815
AO-85 25 Jun 06:04:55 06:09:07 88° 54° (NE) 06:13:38 145.980
STRAND 1 25 Jun 06:09:36 06:12:16 14° 65° (ENE) 06:14:56 437.568
KAITUO 1B 25 Jun 06:15:51 06:18:38 20° 96° (E) 06:21:23 145.475/437.950
AO-7 25 Jun 06:15:57 06:21:39 21° 303° (WNW) 06:27:22 .
CUTE-I 25 Jun 06:22:06 06:26:52 32° 97° (E) 06:31:36 437.470
BEESAT 3 25 Jun 06:26:07 06:30:07 81° 61° (ENE) 06:34:03 437.485
NO-84 25 Jun 06:31:31 06:35:26 34° 235° (SW) 06:39:11 435.350 FM
NUDT-PHONESAT 25 Jun 06:51:38 06:55:18 64° 101° (E) 06:58:56 437.300
DOVE 4 25 Jun 06:52:53 06:57:34 44° 286° (WNW) 07:02:28 437.250
HO-68 25 Jun 07:00:20 07:05:45 23° 95° (E) 07:11:07 435.675
XW-2F 25 Jun 07:05:29 07:09:11 60° 284° (WNW) 07:12:50 145.980 - 146.000
O/OREOS (USA 219) 25 Jun 07:08:03 07:11:46 25° 64° (ENE) 07:15:28 437.305
XW-2D 25 Jun 07:09:09 07:12:48 48° 284° (WNW) 07:16:23 145.860 - 145.880
LilacSat-2 25 Jun 07:16:54 07:20:23 36° 286° (WNW) 07:23:52 437.200
XW-2B 25 Jun 07:18:14 07:21:45 38° 286° (WNW) 07:25:13 145.730 - 145.750
BEESAT 2 25 Jun 07:23:49 07:27:50 65° 245° (WSW) 07:31:48 435.950
Tancredo 1 25 Jun 07:28:35 07:31:31 52° 134° (SE) 07:34:28 437.200
YUBILEINY 25 Jun 07:31:06 07:34:07 12° 64° (ENE) 07:37:07 435.215
XW-2C 25 Jun 07:34:06 07:37:08 23° 288° (WNW) 07:40:08 145.795 - 145.815
SEEDS 25 Jun 07:40:12 07:43:38 25° 96° (E) 07:47:03 437.485
ISS 25 Jun 07:41:54 07:44:48 30° 131° (SE) 07:47:44 437.550
STRAND 1 25 Jun 07:45:51 07:50:53 58° 259° (W) 07:55:58 437.568
XW-2A 25 Jun 07:49:41 07:52:51 36° 98° (E) 07:55:59 145.665 - 145.685
KAITUO 1B 25 Jun 07:49:48 07:52:29 19° 289° (WNW) 07:55:10 145.475/437.950
CUTE 1.7 + AOD 2 25 Jun 07:56:06 08:00:17 68° 102° (ESE) 08:04:26 437.475
RS-15 25 Jun 07:57:57 08:08:48 43° 253° (WSW) 08:19:10 29.354- 29.394
CUTE-I 25 Jun 08:02:16 08:06:44 27° 292° (WNW) 08:11:12 437.470
CUBEBUG 2 25 Jun 08:02:23 08:06:47 38° 98° (E) 08:11:01 437.445
Oscar 11 25 Jun 08:27:36 08:29:54 14° 93° (E) 08:32:11 .
AAUSAT CUBESAT 2 25 Jun 08:32:09 08:36:07 47° 99° (E) 08:40:05 437.432
ZACube-1 25 Jun 08:33:30 08:37:12 26° 96° (E) 08:40:49 437.345
UWE-3 25 Jun 08:36:58 08:41:28 56° 100° (E) 08:45:49 435.000/436.395/437.385
HO-68 25 Jun 08:46:46 08:53:45 57° 290° (WNW) 09:00:41 435.675
O/OREOS (USA 219) 25 Jun 08:47:28 08:51:01 23° 258° (WSW) 08:54:33 437.305
M-CUBED/EXP-1 PRIME 25 Jun 09:05:26 09:08:40 48° 71° (ENE) 09:11:49 437.505
Tancredo 1 25 Jun 09:05:43 09:07:19 13° 329° (NNW) 09:08:56 437.200
SEEDS 25 Jun 09:16:02 09:19:08 21° 290° (WNW) 09:22:13 437.485
ISS 25 Jun 09:18:44 09:21:19 21° 326° (NW) 09:23:54 437.550
FO-29 25 Jun 09:19:04 09:24:40 46° 70° (ENE) 09:31:00 435.910
PRISM 25 Jun 09:20:13 09:23:39 28° 71° (ENE) 09:27:07 437.425
TIGRISAT 25 Jun 09:20:23 09:24:13 27° 70° (ENE) 09:28:08 435.000
YUBILEINY 25 Jun 09:23:31 09:32:23 77° 83° (E) 09:41:09 435.215
AO-73 25 Jun 09:34:17 09:38:40 63° 284° (WNW) 09:42:55 145.935
EO-88 25 Jun 09:35:05 09:36:20 11° 93° (E) 09:37:35 145.990 - 145.960
CUBEBUG 2 25 Jun 09:39:56 09:43:00 17° 292° (WNW) 09:46:00 437.445
UNISAT 6 25 Jun 10:01:31 10:06:05 89° 77° (ENE) 10:10:46 437.425
Oscar 11 25 Jun 10:02:09 10:06:09 38° 286° (WNW) 10:10:06 .
DELFI C3 25 Jun 10:02:26 10:06:14 47° 100° (E) 10:10:02 145.870
ZACube-1 25 Jun 10:09:52 10:13:18 22° 290° (WNW) 10:16:40 437.345
AAUSAT CUBESAT 2 25 Jun 10:09:57 10:11:06 11° 293° (WNW) 10:12:15 437.432
UWE-3 25 Jun 10:15:43 10:17:19 12° 295° (WNW) 10:18:55 435.000/436.395/437.385
POLYITAN 1 25 Jun 10:55:35 10:58:29 18° 69° (ENE) 11:01:23 437.675
PRISM 25 Jun 10:56:11 10:58:54 17° 265° (W) 11:01:38 437.425
TIGRISAT 25 Jun 10:57:09 11:00:48 24° 265° (W) 11:04:32 435.000
FO-29 25 Jun 11:05:34 11:10:03 22° 269° (W) 11:14:57 435.910
QB50P2 25 Jun 11:05:41 11:09:12 26° 71° (ENE) 11:12:44 145.880/145.840
EO-88 25 Jun 11:06:48 11:10:05 32° 286° (WNW) 11:13:19 145.990 - 145.960
YUBILEINY 25 Jun 11:22:39 11:28:05 18° 280° (W) 11:33:31 435.215
EO-79 25 Jun 11:29:41 11:33:44 45° 74° (ENE) 11:37:49 145.935-145.965
LO-87 25 Jun 11:30:12 11:33:43 47° 99° (E) 11:37:14 145.935 - 145.965
AIST 2D 25 Jun 11:34:42 11:38:12 57° 260° (W) 11:41:43 435.315
DELFI C3 25 Jun 11:40:05 11:40:32 10° 293° (WNW) 11:40:59 145.870
DUCHIFAT 1 25 Jun 11:43:57 11:48:03 54° 75° (ENE) 11:52:12 145.980
NANOSAT C BR1 25 Jun 11:52:12 11:56:25 79° 77° (ENE) 12:00:41 145.865
PCSat 25 Jun 12:03:55 12:09:20 90° 134° (SE) 12:14:48 145.827
ESTCUBE 1 25 Jun 12:17:49 12:22:18 83° 285° (WNW) 12:26:46 437.505/2401.250
VELOX 1 25 Jun 12:21:18 12:24:42 21° 96° (E) 12:28:06 145.980
POLYITAN 1 25 Jun 12:30:13 12:33:59 31° 262° (W) 12:37:48 437.675
QB50P2 25 Jun 12:41:41 12:44:54 21° 264° (W) 12:48:09 145.880/145.840
Oscar 19 25 Jun 12:41:55 12:46:15 28° 69° (ENE) 12:50:35 437.125/150
SPROUT 25 Jun 12:43:37 12:47:45 44° 99° (E) 12:51:50 437.525
DX 1 25 Jun 12:43:51 12:44:50 11° 93° (E) 12:45:47 434.975-435.025
50 SAT 25 Jun 12:53:23 12:55:52 19° 96° (E) 12:58:21 437.505
BUGSAT 1 25 Jun 12:54:56 12:59:01 74° 257° (WSW) 13:03:12 437.445
UKube-1 25 Jun 13:01:12 13:02:26 11° 93° (E) 13:03:40 .
SO-50 25 Jun 13:02:17 13:04:49 15° 108° (ESE) 13:07:20 436.795
EO-79 25 Jun 13:08:12 13:09:41 12° 267° (W) 13:11:10 145.935-145.965
JUGNU 25 Jun 13:14:55 13:18:44 17° 171° (S) 13:22:34 437.505
AO-7 25 Jun 13:28:37 13:32:35 14° 53° (NE) 13:36:33 .
Gurwin Techsat 1B 25 Jun 13:32:43 13:37:52 55° 73° (ENE) 13:43:03 435.225
PCSat 25 Jun 13:51:24 13:53:27 12° 312° (NW) 13:55:31 145.827
Tancredo 1 25 Jun 13:57:11 13:58:19 12° 29° (NNE) 13:59:27 437.200
VELOX 1 25 Jun 13:57:20 14:01:05 27° 289° (WNW) 14:04:49 145.980
ISS 25 Jun 14:14:34 14:15:02 10° 26° (NNE) 14:15:31 437.550
DX 1 25 Jun 14:17:00 14:21:15 52° 286° (WNW) 14:25:29 434.975-435.025
Oscar 19 25 Jun 14:21:02 14:25:26 28° 263° (W) 14:29:51 437.125/150
SPROUT 25 Jun 14:21:10 14:23:12 13° 293° (WNW) 14:25:13 437.525
50 SAT 25 Jun 14:26:12 14:28:30 17° 289° (WNW) 14:30:47 437.505
UKube-1 25 Jun 14:34:30 14:38:40 49° 286° (WNW) 14:42:50 .
SO-50 25 Jun 14:40:27 14:44:51 46° 302° (WNW) 14:49:13 436.795
ITAMSAT 1 25 Jun 14:57:28 15:02:21 44° 72° (ENE) 15:07:17 435.822/435.867
SRMSAT 25 Jun 15:00:40 15:03:19 13° 166° (SSE) 15:05:57 437.500
JUGNU 25 Jun 15:02:44 15:07:06 21° 181° (S) 15:11:27 437.505
Gurwin Techsat 1B 25 Jun 15:15:13 15:18:05 15° 267° (W) 15:20:58 435.225
AO-7 25 Jun 15:15:41 15:23:58 77° 71° (ENE) 15:32:18 .
MOZHAYETS 4 25 Jun 15:30:07 15:34:11 31° 97° (E) 15:38:14
Tancredo 1 25 Jun 15:31:11 15:34:13 70° 224° (SW) 15:37:14 437.200
ITUPSAT 1 25 Jun 15:47:55 15:52:44 80° 103° (ESE) 15:57:29 437.325
ISS 25 Jun 15:48:43 15:52:01 73° 43° (NE) 15:55:17 437.550
BEESAT 25 Jun 15:58:00 16:02:47 78° 285° (WNW) 16:07:32 436.000
CUBESAT XI-V 25 Jun 16:11:57 16:14:35 15° 93° (E) 16:17:14 437.345
ITAMSAT 1 25 Jun 16:38:28 16:41:58 18° 266° (W) 16:45:29 435.822/435.867
SRMSAT 25 Jun 16:47:35 16:51:47 20° 175° (S) 16:55:59 437.500
JUGNU 25 Jun 16:51:51 16:55:27 16° 191° (S) 16:59:04 437.505
KKS-1 25 Jun 17:04:06 17:08:18 38° 99° (E) 17:12:29 437.445
MOZHAYETS 4 25 Jun 17:07:46 17:11:06 20° 291° (WNW) 17:14:24
AO-7 25 Jun 17:11:56 17:17:20 19° 266° (W) 17:22:47 .
NUDT-PHONESAT 25 Jun 17:27:59 17:30:23 16° 70° (ENE) 17:32:47 437.300
HO-68 25 Jun 17:28:48 17:30:53 11° 56° (NE) 17:32:57 435.675
STARS 25 Jun 17:34:02 17:38:04 33° 98° (E) 17:42:04 437.465
CUTE-I 25 Jun 17:40:05 17:44:52 35° 70° (ENE) 17:49:41 437.470
XW-2F 25 Jun 17:42:19 17:45:45 32° 73° (ENE) 17:49:12 145.980 - 146.000
XW-2D 25 Jun 17:46:06 17:49:42 40° 75° (ENE) 17:53:19 145.860 - 145.880
CUBESAT XI-V 25 Jun 17:47:47 17:52:05 41° 287° (WNW) 17:56:23 437.345
LilacSat-2 25 Jun 17:54:10 17:57:57 54° 76° (ENE) 18:01:44 437.200
DOVE 4 25 Jun 17:54:41 17:58:46 63° 259° (W) 18:02:58 437.250
XW-2B 25 Jun 17:54:58 17:58:41 51° 75° (ENE) 18:02:25 145.730 - 145.750
XW-2C 25 Jun 18:10:19 18:14:10 87° 70° (ENE) 18:18:01 145.795 - 145.815
KAITUO 1B 25 Jun 18:24:29 18:28:17 80° 260° (W) 18:32:04 145.475/437.950
SEEDS 25 Jun 18:30:09 18:31:22 11° 67° (ENE) 18:32:34 437.485
SRMSAT 25 Jun 18:36:09 18:40:18 20° 186° (S) 18:44:26 437.500
KKS-1 25 Jun 18:41:44 18:44:30 16° 293° (WNW) 18:47:15 437.445
CUTE 1.7 + AOD 2 25 Jun 18:44:58 18:48:37 28° 72° (ENE) 18:52:16 437.475
CUBEBUG 2 25 Jun 18:56:53 19:00:17 21° 69° (ENE) 19:03:44 437.445
NUDT-PHONESAT 25 Jun 19:00:54 19:04:02 25° 263° (W) 19:07:12 437.300
HO-68 25 Jun 19:10:12 19:17:21 74° 73° (ENE) 19:24:32 435.675
STARS 25 Jun 19:11:06 19:14:06 18° 292° (WNW) 19:17:07 437.465
XW-2F 25 Jun 19:18:10 19:19:56 13° 267° (W) 19:21:42 145.980 - 146.000
AAUSAT CUBESAT 2 25 Jun 19:19:05 19:22:00 19° 70° (ENE) 19:24:56 437.432
CUTE-I 25 Jun 19:20:44 19:24:55 23° 264° (W) 19:29:08 437.470
XW-2D 25 Jun 19:23:21 19:24:02 10° 268° (W) 19:24:41 145.860 - 145.880
ZACube-1 25 Jun 19:26:23 19:28:46 14° 67° (ENE) 19:31:09 437.345
UWE-3 25 Jun 19:29:52 19:33:46 28° 71° (ENE) 19:37:43 435.000/436.395/437.385
XW-2A 25 Jun 19:49:07 19:52:28 51° 261° (W) 19:55:50 145.665 - 145.685
STRAND 1 25 Jun 20:00:11 20:05:19 67° 102° (ESE) 20:10:24 437.568
RS-15 25 Jun 20:02:07 20:13:20 48° 108° (ESE) 20:24:48 29.354- 29.394
SEEDS 25 Jun 20:02:29 20:06:34 50° 260° (W) 20:10:39 437.485
NO-84 25 Jun 20:09:09 20:11:04 14° 119° (ESE) 20:13:03 435.350 FM
BEESAT 3 25 Jun 20:12:06 20:15:39 33° 113° (ESE) 20:19:16 437.485
AO-85 25 Jun 20:15:48 20:19:57 75° 116° (ESE) 20:23:55 145.980
CUTE 1.7 + AOD 2 25 Jun 20:21:23 20:24:24 19° 265° (W) 20:27:26 437.475
AO-73 25 Jun 20:24:58 20:29:25 59° 75° (ENE) 20:33:55 145.935
SRMSAT 25 Jun 20:26:25 20:28:46 12° 195° (SSW) 20:31:07 437.500
YUBILEINY 25 Jun 20:27:18 20:32:07 16° 79° (E) 20:36:55 435.215
CUBEBUG 2 25 Jun 20:32:36 20:36:37 31° 264° (W) 20:40:47 437.445
DELFI C3 25 Jun 20:45:06 20:47:29 16° 69° (ENE) 20:49:53 145.870
Oscar 11 25 Jun 20:52:12 20:56:32 86° 256° (WSW) 21:00:54 .
AAUSAT CUBESAT 2 25 Jun 20:53:46 20:57:15 26° 263° (W) 21:00:45 437.432
PCSat 25 Jun 20:56:05 21:00:55 31° 57° (ENE) 21:05:41 145.827
ZACube-1 25 Jun 21:00:13 21:04:34 47° 261° (W) 21:08:59 437.345
HO-68 25 Jun 21:01:17 21:05:35 17° 267° (W) 21:09:55 435.675
UWE-3 25 Jun 21:06:34 21:10:08 23° 265° (W) 21:13:47 435.000/436.395/437.385
BEESAT 2 25 Jun 21:11:01 21:14:52 54° 115° (ESE) 21:18:48 435.950
O/OREOS (USA 219) 25 Jun 21:15:37 21:20:06 62° 107° (ESE) 21:24:36 437.305
EO-88 25 Jun 21:40:00 21:43:34 51° 75° (ENE) 21:47:09 145.990 - 145.960
STRAND 1 25 Jun 21:41:42 21:43:52 13° 296° (WNW) 21:46:01 437.568
NO-84 25 Jun 21:44:25 21:48:08 50° 315° (NW) 21:52:09 435.350 FM
BEESAT 3 25 Jun 21:50:35 21:53:17 17° 308° (NW) 21:56:02 437.485
